Flag for U.S.A. Weather past 2 weeks in Stroudsburg, Pennsylvania, U.S.A.

Now
44 °F

Sunny.


Feels Like: 43 °F
Forecast: 32 / 57 °F
Wind: 3 mph from North

Location: Pocono Mountains Municipal Airport


UV Index: 3 (Moderate)

Visibility: 10 mi


Pressure: 30.38 "Hg

Humidity: 49%

Dew point: 26 °F

Location of StroudsburgLocation

Historic Weather in Stroudsburg

°F

Stroudsburg temperature yesterday

Maximum temperature yesterday: 47 °F (at 3:53 PM)
Minimum temperature yesterday: 26 °F (at 5:53 AM)
Average temperature yesterday: 35 °F

Past Weeks' High & Low Weather Summary

 TemperatureHumidityPressure
High74 °F (Apr 13, 4:53 PM)100% (Apr 5, 12:53 AM)30.68 "Hg (Apr 5, 12:53 AM)
Low19 °F (Apr 16, 6:53 AM)17% (Apr 3, 3:53 PM)29.41 "Hg (Apr 8, 11:00 AM)
Average44 °F65%30.02 "Hg
* Reported Apr 3 1:53 PM — Apr 18 1:53 PM, Stroudsburg, Weather by CustomWeather, © 2014

Note: Actual official high and low records may vary slightly from our data, if they occured in-between our weather recording intervals... More about our weather records

Advertising

Historic Weather Conditions — Data for Previous 24 hours

 ConditionsComfort  
Time TempWeatherWind HumidityBarometerVisibility
1:53 PM
Apr 18
44 °FSunny.8 mph51%30.40 "Hg10 mi
12:53 PM42 °FSunny.9 mph55%30.42 "Hg10 mi
11:53 AM37 °FSunny.6 mph67%30.45 "Hg10 mi
10:53 AM36 °FScattered clouds.10 mph70%30.45 "Hg10 mi
9:53 AM33 °FOvercast.8 mph78%30.49 "Hg10 mi
8:53 AM32 °FPartly sunny.8 mph82%30.49 "Hg9 mi
7:53 AM31 °FOvercast.8 mph82%30.50 "Hg8 mi
6:53 AM30 °FOvercast.8 mph82%30.48 "Hg8 mi
6:02 AM30 °FOvercast.8 mph82%30.42 "Hg9 mi
5:53 AM30 °FLow clouds.7 mph85%30.47 "Hg10 mi
4:53 AM30 °FLow clouds.7 mph85%30.47 "Hg10 mi
3:53 AM30 °FLow clouds.7 mph85%30.47 "Hg10 mi
2:53 AM30 °FOvercast.7 mph89%30.53 "Hg10 mi
1:53 AM30 °FLow clouds.6 mph89%30.58 "Hg9 mi
12:53 AM29 °FClear.7 mph85%30.57 "Hg10 mi
11:53 PM
Apr 17
29 °FClear.No wind85%30.57 "Hg10 mi
10:53 PM31 °FClear.5 mph79%30.58 "Hg10 mi
9:53 PM32 °FClear.7 mph75%30.60 "Hg10 mi
8:53 PM35 °FClear.9 mph67%30.60 "Hg10 mi
7:53 PM38 °FSunny.9 mph58%30.60 "Hg10 mi
6:53 PM42 °FSunny.9 mph45%30.60 "Hg10 mi
5:53 PM44 °FSunny.9 mph40%30.59 "Hg10 mi
4:53 PM45 °FSunny.13 mph38%30.58 "Hg10 mi
3:53 PM47 °FSunny.12 mph36%30.59 "Hg10 mi
Weather by CustomWeather, © 2014

See weather overview